Regional Weather Roundup
Issued by NWS

Home | Current Version | Previous Version | Text Only | Print | Product List | Glossary Off
Versions: 1 2 3 4 5 6 7 8 9 10 11 12 13 14 15 16 17 18 19 20 21 22 23 24 25 26 27 28 29 30 31 32 33 34 35 36 37 38 39 40 41 42 43 44 45 46 47 48 49 50

000
ASUS43 KFSD 211710
RWRSD

WEATHER ROUNDUP FOR SOUTH DAKOTA
NATIONAL WEATHER SERVICE SIOUX FALLS SD
1100 AM CST SUN JAN 21 2018

NOTE: "FAIR" INDICATES FEW OR NO CLOUDS BELOW 12,000 FEET WITH NO
SIGNIFICANT WEATHER AND/OR OBSTRUCTIONS TO VISIBILITY.


SDZ001>005-009-010-012>017-211800-
NORTHWEST AND NORTH CENTRAL SOUTH DAKOTA

CITY           SKY/WX    TMP DP  RH WIND       PRES   REMARKS
BUFFALO          N/A     26  19  74 W9        29.95S WCI  17
FAITH            N/A     30  23  75 NW9       30.02S WCI  22
MOBRIDGE       CLOUDY    29  23  78 NW7       30.02R WCI  22
$$

SDZ012>016-024>037-041>051-057-063-072>074-211800-
SOUTHWEST AND SOUTH CENTRAL SOUTH DAKOTA

CITY           SKY/WX    TMP DP  RH WIND       PRES   REMARKS
RAPID CTY ARPT CLOUDY    32  25  75 N12       30.01R WCI  23
PIERRE         CLOUDY    32  28  85 N8        30.04R WCI  25
CUSTER         CLOUDY    23  16  74 N8        29.92R WCI  14
ELLSWORTH AFB  CLOUDY    32  25  76 N12       30.00S WCI  23
PHILIP         LGT SNOW  31  29  92 NE7       30.04R FOG     WCI  24
PINE RIDGE     FLURRIES  30  28  92 N10       29.99R WCI  21
SPEARFISH        N/A     28  21  74 SW3       30.02R
WINNER         LGT SNOW  34  32  92 N13       30.00S FOG     WCI  25
$$

SDZ004>011-016>023-039-040-211800-
NORTHEAST SOUTH DAKOTA

CITY           SKY/WX    TMP DP  RH WIND       PRES   REMARKS
ABERDEEN       PTSUNNY   27  23  85 N9        30.06R WCI  18
WATERTOWN      CLOUDY    33  27  78 N6        30.00R WCI  28
BROOKINGS      CLOUDY    35  31  85 N7        29.98R WCI  29
SISSETON         N/A     29  24  82 N12       30.03R WCI  19
$$

SDZ017-020-022-023-036>040-048>070-211800-
SOUTHEAST SOUTH DAKOTA

CITY           SKY/WX    TMP DP  RH WIND       PRES   REMARKS
SIOUX FALLS    CLOUDY    39  32  76 NE13      29.95R
HURON          LGT SNOW  32  32 100 NW8       30.03R FOG     WCI  25
CHAMBERLAIN    LGT SNOW  34  34 100 NW8       30.02R WCI  27
MITCHELL       CLOUDY    35  33  92 N9        30.02R WCI  28
YANKTON        CLOUDY    39  30  70 N14       29.94R
$$

ABBREVIATIONS USED IN REMARKS
   TC - TEMPERATURE IN CELSIUS
  WCI - WIND CHILL INDEX
   HX - HEAT INDEX
  VSB - VISIBILITY





USA.gov is the U.S. government's official web portal to all federal, state and local government web resources and services.